This is the latest recevied weather packets stored in our database for station/object DL1NER. If no packets are shown the sender has not sent any weather packets the latest 10 day(s).
| Time | Temp. | Humidity | Pressure | Rain* | Wind** | Luminosity | Snow |
|---|---|---|---|---|---|---|---|
| 1777158611 | 6.67° C | 55% | 1019.2 hPa | 0 mm | - | 0 W/m² | - |
| 1777158011 | 7.22° C | 54% | 1019.2 hPa | 0 mm | - | 0 W/m² | - |
| 1777157412 | 7.78° C | 53% | 1019 hPa | 0 mm | - | 0 W/m² | - |
| 1777156811 | 7.78° C | 53% | 1018.9 hPa | 0 mm | - | 0 W/m² | - |
| 1777156211 | 8.33° C | 53% | 1018.8 hPa | 0 mm | - | 0 W/m² | - |
| 1777155611 | 8.33° C | 53% | 1018.6 hPa | 0 mm | - | 0 W/m² | - |
| 1777155011 | 8.33° C | 53% | 1018.4 hPa | 0 mm | - | 0 W/m² | - |
| 1777154411 | 8.33° C | 52% | 1018.3 hPa | 0 mm | - | 0 W/m² | - |
| 1777153811 | 8.33° C | 52% | 1018.3 hPa | 0 mm | - | 0 W/m² | - |
| 1777153211 | 8.33° C | 52% | 1018.3 hPa | 0 mm | - | 0 W/m² | - |
| 1777152611 | 8.33° C | 53% | 1018.1 hPa | 0 mm | - | 0 W/m² | - |
| 1777152011 | 8.33° C | 53% | 1018 hPa | 0 mm | - | 0 W/m² | - |
| 1777151411 | 8.33° C | 52% | 1018 hPa | 0 mm | - | 0 W/m² | - |
| 1777150811 | 8.89° C | 53% | 1017.9 hPa | 0 mm | - | 0 W/m² | - |
| 1777150211 | 8.89° C | 52% | 1017.9 hPa | 0 mm | - | 0 W/m² | - |
| 1777149611 | 9.44° C | 51% | 1017.8 hPa | 0 mm | - | 0 W/m² | - |
| 1777149011 | 9.44° C | 51% | 1017.7 hPa | 0 mm | - | 0 W/m² | - |
| 1777148411 | 10° C | 50% | 1017.6 hPa | 0 mm | - | 0 W/m² | - |
| 1777147811 | 10.56° C | 49% | 1017.6 hPa | 0 mm | - | 0 W/m² | - |
| 1777147211 | 10.56° C | 46% | 1017.7 hPa | 0 mm | - | 0 W/m² | - |
| 1777146611 | 11.11° C | 46% | 1017.5 hPa | 0 mm | - | 0 W/m² | - |
| 1777146011 | 11.67° C | 45% | 1017.6 hPa | 0 mm | - | 0 W/m² | - |
| 1777145411 | 12.22° C | 42% | 1017.5 hPa | 0 mm | - | 0 W/m² | - |
| 1777144811 | 12.22° C | 39% | 1017.4 hPa | 0 mm | - | 0 W/m² | - |
| 1777144211 | 12.78° C | 37% | 1017.2 hPa | 0 mm | - | 0 W/m² | - |
* Rain latest hour (hover to see other rain measurements)
** Current wind speed in m/s (hover to see current wind gust speed)